Theta_e
298 298 298 298 298 297 297 297 297 297 297 296 296 296 295 295 295 295 295 294 294 294 294 294 293 293 293 292 292 292 292 292 291 291 291 291 291 290 290 290 290 289
296 296 296 296 296 296 295 295 295 295 295 295 295 294 294 294 294 294 294 293 293 293 293 293 293 292 292 292 292 291 291 291 291 290 290 290 290 290 290 290 289 289
294 294 294 294 294 294 294 294 294 294 294 294 293 293 293 293 293 293 293 292 292 292 292 292 292 292 292 291 291 291 291 290 290 290 290 290 289 289 289 289 289 289
292 292 292 292 293 293 293 293 293 293 293 293 293 293 293 293 293 292 292 292 292 292 292 292 292 291 291 291 291 290 290 290 290 289 289 289 289 289 289 288 288 288
291 291 291 291 291 291 292 292 292 292 292 292 293 293 293 293 293 293 292 292 292 292 292 292 291 291 291 291 290 290 290 290 290 289 288 289 289 288 288 288 288 288
291 291 291 291 291 291 291 291 291 291 291 291 292 292 292 292 292 292 292 292 292 292 292 291 291 291 291 291 290 290 290 290 290 289 289 289 288 288 288 287 287 287
291 291 291 291 291 291 291 291 291 291 291 291 291 291 291 291 291 292 292 292 292 292 292 291 291 291 291 290 290 290 290 290 290 289 288 289 288 288 288 287 287 287
290 290 290 290 290 290 290 290 290 290 290 290 290 290 290 290 290 290 290 291 291 292 291 291 291 291 290 290 290 290 290 290 289 289 289 289 288 288 288 287 287 287
290 290 290 290 290 290 290 289 289 289 289 289 289 289 288 289 289 289 289 290 290 290 291 290 290 290 289 289 289 289 289 289 289 289 289 289 288 288 288 287 287 287
288 289 289 289 289 289 289 289 289 288 288 288 288 288 287 287 287 287 288 288 289 289 289 289 289 289 289 288 288 288 288 288 288 288 288 288 288 288 288 287 286 286
287 287 287 287 287 288 288 288 288 288 288 288 288 288 287 287 287 287 287 287 287 287 288 288 288 288 288 288 288 288 288 288 288 287 287 287 287 287 287 287 286 286
285 285 285 285 285 285 286 286 286 286 287 287 287 287 287 287 287 287 287 287 287 286 286 287 287 287 287 287 287 287 287 287 287 286 287 287 287 287 287 286 286 286
283 283 284 284 284 284 284 284 284 284 285 285 285 286 286 286 287 287 287 287 287 286 286 286 286 286 286 286 287 286 286 286 286 286 286 286 286 286 286 286 285 285
282 282 282 282 282 282 282 283 283 283 283 283 284 284 284 285 285 285 285 286 286 286 286 286 286 286 286 286 286 286 286 285 285 285 285 285 285 285 285 285 285 285
281 281 281 281 281 281 281 281 282 282 282 282 282 282 282 283 283 283 283 284 284 284 285 285 285 285 285 285 285 285 285 285 285 285 284 284 284 284 284 284 284 284
279 280 280 280 280 280 280 281 281 281 281 281 281 281 281 281 281 282 282 282 282 283 283 283 284 284 284 284 284 284 284 284 284 284 284 284 283 283 283 283 283 283
279 279 279 279 279 279 280 280 280 280 280 280 280 280 280 280 280 281 281 281 281 281 281 282 282 282 283 283 283 283 283 283 283 283 283 283 283 283 283 283 283 282
278 279 279 279 279 279 279 279 279 279 279 279 280 279 279 279 279 279 280 280 280 280 280 280 281 281 281 281 281 281 282 282 282 282 282 282 282 282 282 282 282 282
278 278 278 278 278 278 278 278 278 278 278 278 278 278 278 278 278 278 278 278 279 279 279 279 279 279 280 280 280 280 280 280 280 280 280 280 280 280 281 281 281 281
277 277 277 277 277 277 277 277 277 277 276 276 276 276 276 277 277 277 277 277 277 277 278 278 278 278 278 278 278 278 278 278 279 279 279 279 279 279 279 279 280 280
276 276 276 275 275 275 275 275 275 275 275 275 275 275 275 275 275 275 275 276 276 276 276 276 277 277 277 277 277 277 276 277 277 278 278 278 278 278 278 279 279 279
274 273 273 273 273 273 273 273 273 273 273 273 274 274 274 274 274 274 274 274 275 275 275 275 275 276 276 276 276 275 275 276 276 277 277 277 277 277 278 278 278 278
272 271 271 271 271 272 272 272 272 272 272 272 272 272 273 273 273 273 273 273 273 274 274 274 274 274 274 275 274 274 274 274 275 275 275 276 276 276 276 276 277 277
270 270 270 270 270 271 271 271 271 271 271 271 271 271 271 272 272 272 272 272 272 273 273 273 273 273 273 273 273 273 273 273 274 274 274 274 274 275 275 275 275 275
269 269 269 270 270 270 270 270 270 270 270 270 270 270 270 270 271 271 271 271 272 272 272 272 272 272 273 273 273 273 273 273 273 273 273 273 273 273 274 274 274 274
269 269 269 269 269 269 269 269 269 269 269 269 269 270 270 270 270 270 270 270 270 270 270 270 271 271 272 272 272 272 272 272 272 272 272 272 272 272 272 273 273 273
Wind_Speed
30 30 30 31 31 32 32 33 35 37 38 39 40 40 40 39 38 39 40 39 40 40 39 39 39 39 39 39 40 41 42 43 43 44 45 46 47 48 49 50 50 51
26 27 27 28 27 28 28 30 31 34 35 36 37 37 38 37 37 38 39 39 39 39 39 38 38 38 38 39 39 40 41 42 42 43 44 45 46 47 47 48 48 49
18 20 22 22 22 22 23 24 26 28 29 30 31 32 32 33 34 36 37 38 38 38 38 38 38 38 38 38 38 39 40 41 41 41 42 44 45 46 47 47 48 49
10 11 12 13 14 15 16 18 20 22 23 25 26 27 28 30 31 33 34 35 36 36 36 37 37 37 37 37 38 39 40 40 41 41 42 44 44 46 46 47 48 49
13 13 12 12 12 13 14 15 17 18 20 22 23 24 26 28 29 31 32 33 34 34 35 35 36 36 37 37 38 39 39 40 40 41 43 44 44 46 46 47 49 49
18 18 18 18 17 17 18 18 19 20 21 23 24 25 26 28 30 31 32 33 33 33 34 34 35 36 36 37 37 38 39 39 40 40 42 44 44 45 46 47 49 49
22 22 22 22 22 22 22 22 23 24 24 25 26 27 27 28 30 31 32 32 33 33 33 33 34 35 35 36 37 38 39 39 40 41 42 43 44 45 46 47 49 49
25 25 24 24 24 24 24 24 24 25 25 27 27 27 27 28 29 29 30 31 31 32 32 32 33 33 34 35 37 38 39 39 40 41 42 43 44 46 47 47 49 49
26 26 26 26 25 25 25 25 25 25 25 26 26 26 27 27 27 28 28 28 29 30 30 30 31 32 32 34 36 37 38 38 39 40 41 43 44 46 46 47 48 49
25 25 25 25 25 25 26 26 26 26 26 26 26 26 26 26 26 26 27 27 28 28 29 29 30 30 30 32 34 35 37 37 38 40 41 42 44 45 46 47 48 49
27 26 26 25 25 25 25 25 26 26 27 27 28 28 27 27 27 26 27 27 28 28 29 29 29 30 30 32 33 34 35 37 38 39 41 42 43 44 45 47 48 49
30 29 28 28 27 27 27 26 27 27 27 28 28 29 29 29 29 28 27 27 28 28 28 29 30 30 31 32 33 34 35 36 37 38 39 40 42 43 44 46 48 48
31 30 30 29 29 29 29 28 28 28 28 28 28 29 30 30 30 30 29 28 28 29 29 29 30 30 31 31 33 33 34 35 35 35 37 38 39 41 42 44 46 47
32 31 30 30 30 29 29 29 29 28 28 28 28 29 29 29 30 30 30 29 29 29 30 30 30 31 31 31 32 32 33 33 33 33 34 35 37 38 40 42 44 45
32 32 31 31 30 30 30 29 29 29 28 28 28 28 28 28 28 28 29 29 29 29 29 29 30 30 31 32 32 32 32 32 32 32 32 33 34 36 37 39 41 43
33 33 32 32 31 31 31 30 30 30 29 29 28 28 28 28 27 27 28 28 28 28 28 28 28 28 28 29 30 30 31 31 31 31 31 31 32 34 35 37 38 40
35 34 34 33 32 32 31 31 31 30 30 29 29 28 27 27 27 27 27 27 28 28 28 27 27 27 27 27 27 27 28 28 29 29 29 30 30 32 33 34 35 36
35 35 35 34 33 32 32 31 30 30 29 29 29 28 27 27 26 26 26 26 27 27 27 27 27 27 26 26 26 25 25 24 25 26 27 27 28 29 30 31 31 32
34 34 34 33 32 31 30 29 29 29 28 28 28 27 26 26 25 25 25 25 26 26 26 26 26 26 25 25 24 24 23 21 21 22 23 24 25 25 26 27 27 28
32 32 32 31 30 30 29 28 27 27 26 26 26 25 25 24 24 24 23 23 24 24 24 24 24 24 23 23 23 22 20 19 20 22 23 23 23 23 23 24 24 24
30 30 29 29 28 28 27 26 25 25 24 24 24 23 23 23 23 23 23 23 22 23 23 23 23 23 22 21 20 18 17 19 21 22 23 24 25 24 24 24 23 22
27 27 26 26 26 25 24 24 24 24 23 23 23 22 22 22 21 21 22 22 22 22 23 23 22 22 21 20 18 15 15 19 22 22 22 23 24 25 25 24 24 23
26 26 25 25 24 24 23 23 23 23 22 23 23 22 22 22 21 21 21 22 22 22 22 22 21 20 19 18 17 15 16 20 21 21 21 22 22 23 23 23 23 23
25 25 25 24 24 23 23 23 23 23 23 23 23 23 22 22 22 21 20 21 21 21 22 22 21 19 18 18 17 16 17 20 21 21 21 21 22 22 22 22 21 20
24 24 23 24 23 23 22 23 23 23 23 22 22 23 22 22 22 21 20 20 21 21 22 22 22 21 19 19 19 18 19 21 23 23 23 23 23 23 23 22 21 19
23 23 23 23 23 22 22 22 23 23 22 22 22 22 22 22 22 22 21 20 20 21 21 22 23 22 21 20 21 20 20 22 23 24 24 24 24 25 25 24 23 22
Wind_Direction
278 278 278 278 279 280 281 282 282 282 282 283 283 285 286 287 287 286 285 284 284 283 282 282 281 279 278 276 274 273 272 271 270 270 268 268 268 267 266 266 265 264
281 280 280 280 281 282 282 283 283 282 283 283 284 285 286 286 287 286 286 285 285 284 284 283 281 280 278 277 275 274 272 271 270 270 269 268 268 267 267 267 266 265
287 284 283 283 283 284 284 284 284 283 284 284 284 285 286 287 287 286 286 286 285 285 284 283 282 281 279 278 276 274 273 272 271 271 269 269 268 267 267 267 266 265
322 309 300 296 293 292 290 288 287 288 288 287 287 287 287 286 286 286 286 286 285 285 285 284 283 282 280 279 277 275 274 273 273 271 269 269 268 267 267 266 265 265
349 342 334 328 322 314 308 303 301 299 295 293 293 291 289 288 287 285 285 284 284 284 284 284 283 282 281 280 278 277 276 275 274 272 269 270 269 267 267 265 264 264
337 333 331 328 324 320 314 310 306 302 298 296 294 293 292 290 288 286 284 282 281 281 281 282 282 282 281 280 278 277 276 276 276 273 271 272 271 269 268 266 264 264
329 327 325 322 320 317 312 309 305 301 298 295 292 290 289 288 286 285 284 282 279 277 277 278 279 279 279 279 277 276 276 275 275 273 272 273 272 269 268 266 264 265
328 325 323 320 318 316 313 310 306 302 299 295 292 289 287 285 283 282 282 281 278 276 275 275 276 276 277 277 275 275 274 274 274 273 273 274 273 270 269 267 265 265
325 322 319 317 315 314 312 311 309 306 304 300 297 295 292 289 287 285 283 281 280 278 276 275 275 275 276 276 275 274 274 274 274 273 273 274 272 272 271 268 265 266
325 322 319 316 314 312 310 309 308 307 306 304 303 301 299 296 293 290 288 286 284 282 281 280 278 277 277 276 275 275 275 275 274 273 273 272 272 272 271 268 266 266
329 327 324 321 318 315 312 310 308 306 305 304 303 302 301 300 297 295 292 290 287 285 283 282 280 279 277 275 274 274 274 274 273 272 272 271 271 271 270 268 266 266
330 329 327 325 323 320 317 314 312 309 307 305 303 302 301 300 299 297 295 292 289 287 285 283 281 279 278 276 274 273 272 272 272 271 271 271 270 270 269 268 267 267
329 328 326 325 323 321 319 316 314 311 309 306 304 302 300 299 298 296 295 293 291 288 286 284 282 280 279 277 275 273 271 270 270 270 270 270 269 269 269 268 267 267
328 326 324 323 321 319 317 315 313 311 309 307 304 302 300 298 297 296 295 293 291 289 287 286 284 281 280 278 277 275 272 270 268 267 268 268 268 268 268 267 267 267
326 324 323 322 320 318 316 315 314 312 311 309 306 304 302 299 298 296 295 293 291 290 288 287 285 284 282 280 278 277 275 272 269 266 265 266 266 266 266 266 266 266
325 323 322 321 320 319 317 316 315 313 312 310 308 306 304 302 300 298 296 295 293 291 290 288 287 286 284 283 281 279 277 275 272 269 266 264 264 265 265 265 265 265
324 323 322 322 320 319 318 317 316 315 313 311 309 307 306 304 302 300 298 297 295 294 293 291 290 289 287 286 284 282 280 278 276 274 271 267 266 265 264 264 265 265
322 321 321 320 320 319 318 317 316 315 313 311 309 309 308 307 305 303 301 299 297 296 295 294 293 292 290 289 287 286 284 282 280 277 275 272 269 268 267 266 266 265
320 319 319 318 318 317 317 317 316 315 315 313 311 311 310 309 308 306 304 302 300 298 296 295 295 294 294 292 290 289 287 285 281 277 273 271 270 270 271 270 269 269
319 318 318 318 318 318 318 319 318 318 318 316 315 315 315 314 313 312 310 307 304 302 299 298 298 297 297 296 294 294 293 287 279 273 270 267 267 268 268 269 270 271
321 320 319 319 319 320 321 322 321 321 321 319 319 320 320 319 318 317 315 312 309 306 304 303 302 301 300 299 299 302 301 290 280 275 272 268 267 267 266 266 267 267
324 322 322 321 321 323 325 325 324 324 325 324 323 324 323 321 320 320 318 316 314 311 308 307 306 305 304 302 301 305 303 291 285 282 278 273 271 271 270 269 267 266
327 325 325 324 324 326 327 327 326 327 328 328 327 327 327 325 323 323 322 319 317 315 312 311 310 309 308 306 303 304 301 295 292 290 286 282 280 278 278 277 274 270
328 326 325 325 325 327 328 327 327 328 329 330 329 328 329 327 324 323 322 318 316 315 313 311 311 310 309 307 306 304 303 300 298 297 295 293 290 287 285 284 281 277
326 325 325 325 325 327 328 327 326 327 328 328 328 327 327 326 324 323 323 320 316 315 313 311 310 309 307 306 304 303 302 301 300 300 300 298 296 294 291 287 285 283
324 323 323 323 323 325 327 326 325 325 326 325 326 326 325 324 323 322 322 322 318 316 315 313 312 312 311 308 305 304 302 301 300 300 300 300 300 298 295 292 290 287